STARLINK-3308 (50846 NORAD) Tracking and Keplerian Element Data
This shows tracking and keplerian element data for the satellite.
Feedback or suggestion? Click here.
Element | Value |
Catalog | 50846 |
Name | STARLINK-3308 |
Epoch Orbit | 2184 |
Epoch Day | 140.58334491 |
Epoch Year | 2022 |
RAAN | 295.0545 |
Inclination | 53.2181 |
Eccentricity | 0.0002012 |
Argument of Perigee | 33.2943 |
Mean Anonmoly | 198.202 |
Mean Motion | 15.08875827 |
Decay Rate | -0.00057997 |
L1 | 1 50846U 22001AV 22140.58334491 -.00057997 00000+0 -36518-2 0 9997 |
L2 | 2 50846 53.2181 295.0545 0002012 33.2943 198.2020 15.08875827 21842 |
Live tracking and technical data element details for STARLINK-3308 (NORAD 50846). STARLINK-3308 can be tracked NOW for your location showing map with azimuth and elevation plus other details from your city location.
Track the satellite on the map from your city or location and see movement details for azimuth, elevation, latitude, longitude, range, height, and movement on the map or in text.
IsCatalogInMostPopularTable: catalog: 50846, numindb: 27
Update: records affected: 1
GetName: 50846 STARLINK-3308
Hit Count: updated at: Mon, 23 May 2022 21:41:52 GMT